ギャラッド彗星

296P/Garradd (2014)

English version
Home page
Updated on February 8, 2021

---------------------------------------------------------------------

・ プロフィール

符号 296P/2014 A1
検出日 2014年1月6日
検出光度 18.8等
検出者 Martin Masek (Liberec, Czech Republic)

・ 写真集

・ 軌道要素

Epoch 2014 Mar. 4.0 TT = JDT 2456720.5
T 2014 Mar. 1.28711 TT                                  MPCW
q   1.8307081            (2000.0)            P               Q
n   0.15036221     Peri.  350.03089     -0.26415411     +0.86664434
a   3.5024901      Node   263.67692     -0.85297965     -0.41474803
e   0.4773124      Incl.   25.20460     -0.45016476     +0.27732950
P   6.55
From 209 observations 2001 June 30-2014 Oct. 2, mean residual 0".6.

・ 光度変化

        m1 = 12.5 + 5 logΔ + 15.0 log r

	B核:
        m1 = 16.0 + 5 logΔ + 10.0 log r

---------------------------------------------------------------------

軌道要素はM.P.E.C. 2015-A10に掲載されたものです。
光度グラフはComet for Windowsで作成したものです。

---------------------------------------------------------------------

Copyright(C) Seiichi Yoshida (comet@aerith.net). All rights reserved.